This is the latest recevied weather packets stored in our database for station/object DG1ROH. If no packets are shown the sender has not sent any weather packets the latest 1 day(s).
| Time | Temp. | Humidity | Pressure | Rain* | Wind** | Luminosity | Snow |
|---|---|---|---|---|---|---|---|
| 1778035518 | 9.44° C | 93% | 1005.5 hPa | 3.05 mm | 0.89 m/s, 329° | 0 W/m² | - |
| 1778035397 | 9.44° C | 93% | 1005.5 hPa | 2.79 mm | 0.89 m/s, 23° | 0 W/m² | - |
| 1778035278 | 9.44° C | 93% | 1005.6 hPa | 2.54 mm | 0.89 m/s, 34° | 0 W/m² | - |
| 1778035159 | 9.44° C | 93% | 1005.7 hPa | 2.54 mm | 0.45 m/s, 340° | 0 W/m² | - |
| 1778035039 | 9.44° C | 93% | 1005.6 hPa | 2.54 mm | 0.45 m/s, 22° | 0 W/m² | - |
| 1778034919 | 9.44° C | 93% | 1005.7 hPa | 2.29 mm | 0.89 m/s, 76° | 0 W/m² | - |
| 1778034799 | 9.44° C | 93% | 1005.7 hPa | 2.29 mm | 0.89 m/s, 34° | 0 W/m² | - |
| 1778034679 | 9.44° C | 93% | 1005.7 hPa | 2.29 mm | 0.89 m/s, 54° | 0 W/m² | - |
| 1778034559 | 9.44° C | 93% | 1005.7 hPa | 2.29 mm | 0.89 m/s, 9° | 0 W/m² | - |
| 1778034440 | 9.44° C | 93% | 1005.7 hPa | 2.29 mm | 0.89 m/s, 49° | 0 W/m² | - |
| 1778034319 | 9.44° C | 93% | 1005.7 hPa | 2.29 mm | 0.89 m/s, 342° | 0 W/m² | - |
| 1778034199 | 9.44° C | 93% | 1005.7 hPa | 2.03 mm | 0.89 m/s, 20° | 0 W/m² | - |
| 1778034079 | 9.44° C | 93% | 1005.8 hPa | 1.78 mm | 0.45 m/s, 25° | 0 W/m² | - |
| 1778033957 | 9.44° C | 93% | 1005.8 hPa | 2.03 mm | 0.89 m/s, 20° | 0 W/m² | - |
| 1778033838 | 9.44° C | 93% | 1005.8 hPa | 1.78 mm | 0.89 m/s, 20° | 0 W/m² | - |
| 1778033718 | 9.44° C | 93% | 1005.8 hPa | 1.78 mm | 0.89 m/s, 0° | 0 W/m² | - |
| 1778033597 | 9.44° C | 93% | 1005.8 hPa | 1.78 mm | 0.89 m/s, 0° | 0 W/m² | - |
| 1778033478 | 9.44° C | 93% | 1005.8 hPa | 1.52 mm | 0.89 m/s, 19° | 0 W/m² | - |
| 1778033357 | 9.44° C | 93% | 1005.8 hPa | 1.52 mm | 0.89 m/s, 10° | 0 W/m² | - |
| 1778033238 | 9.44° C | 93% | 1005.9 hPa | 1.52 mm | 0.89 m/s, 11° | 0 W/m² | - |
| 1778033118 | 9.44° C | 93% | 1005.8 hPa | 1.52 mm | 0.89 m/s, 53° | 0 W/m² | - |
| 1778032998 | 9.44° C | 93% | 1005.9 hPa | 1.52 mm | 0.89 m/s, 0° | 0 W/m² | - |
| 1778032877 | 9.44° C | 93% | 1005.9 hPa | 1.52 mm | 0.89 m/s, 15° | 0 W/m² | - |
| 1778032757 | 9.44° C | 93% | 1005.9 hPa | 1.52 mm | 0.89 m/s, 323° | 0 W/m² | - |
| 1778032637 | 9.44° C | 93% | 1005.9 hPa | 1.52 mm | 0.89 m/s, 51° | 0 W/m² | - |
* Rain latest hour (hover to see other rain measurements)
** Current wind speed in m/s (hover to see current wind gust speed)